Flag for China Weather past 2 weeks in Suzhou, Jiangsu, China

Now
86 °F

Sunny.


Feels Like: 97 °F
Forecast: 82 / 96 °F
Wind: 6 mph from Southwest

Location: Shanghai Hongqiao Airport

Current Time: Jul 31, 2015 at 7:10:05 AM

Latest Report: Jul 31, 2015 at 6:00 AM


Visibility: 10 mi

Pressure: 29.77 "Hg

Humidity: 75%

Dew point: 77 °F

Location of SuzhouLocation

Historic Weather in Suzhou — Graph

°F

Suzhou temperature yesterday

Maximum temperature yesterday: 97 °F (at 1:30 PM)
Minimum temperature yesterday: 81 °F (at 4:00 AM)
Average temperature yesterday: 89 °F

Past Weeks' High & Low Weather Summary

 TemperatureHumidityPressure
High100 °F (Jul 27, 2:30 PM)94% (Jul 18, 3:00 AM)29.80 "Hg (Jul 18, 3:00 AM)
Low75 °F (Jul 18, 3:00 AM)37% (Jul 29, 5:00 PM)29.56 "Hg (Jul 16, 12:30 PM)
Average85 °F74%29.68 "Hg
* Reported Jul 16 6:00 AM — Jul 31 6:00 AM, Suzhou, Weather by CustomWeather, © 2015

Note: Actual official high and low records may vary slightly from our data, if they occured in-between our weather recording intervals... More about our weather records

Advertising

Suzhou weather history for previous 24 hours

 ConditionsComfort  
Time TempWeatherWind HumidityBarometerVisibility
6:00 AM
Fri, Jul 31
86 °FSunny.6 mph75%29.77 "Hg10 mi
5:30 AM84 °FSunny.6 mph74%29.77 "Hg10 mi
5:00 AM86 °FPassing clouds.3 mph70%29.77 "HgN/A
4:30 AM86 °FClear.6 mph70%29.77 "Hg10 mi
4:00 AM84 °FClear.6 mph74%29.77 "Hg10 mi
3:30 AM84 °FClear.6 mph74%29.77 "Hg10 mi
3:00 AM84 °FClear.6 mph74%29.77 "Hg10 mi
2:30 AM84 °FClear.6 mph79%29.77 "Hg10 mi
2:00 AM84 °FClear.6 mph79%29.77 "Hg10 mi
1:30 AM84 °FClear.6 mph79%29.77 "Hg10 mi
1:00 AM84 °FClear.8 mph74%29.77 "Hg10 mi
12:30 AM86 °FClear.8 mph70%29.77 "Hg10 mi
12:00 AM86 °FClear.8 mph70%29.77 "Hg10 mi
11:30 PM
Thu, Jul 30
86 °FClear.6 mph70%29.77 "Hg10 mi
11:00 PM86 °FClear.6 mph66%29.77 "Hg10 mi
10:30 PM86 °FClear.8 mph66%29.77 "Hg10 mi
10:00 PM88 °FClear.8 mph62%29.77 "Hg10 mi
9:30 PM88 °FClear.6 mph62%29.77 "Hg10 mi
9:00 PM88 °FClear.8 mph62%29.77 "Hg10 mi
8:30 PM88 °FClear.8 mph66%29.74 "Hg10 mi
8:00 PM90 °FClear.8 mph59%29.74 "Hg10 mi
7:30 PM90 °FClear.10 mph59%29.71 "Hg10 mi
7:00 PM91 °FClear.10 mph56%29.71 "Hg10 mi
6:30 PM93 °FSunny.13 mph53%29.71 "Hg10 mi
6:00 PM95 °FPassing clouds.8 mph44%29.71 "HgN/A
5:30 PM95 °FSunny.8 mph41%29.71 "Hg10 mi
5:00 PM97 °FPassing clouds.8 mph39%29.71 "HgN/A
4:30 PM97 °FPassing clouds.8 mph42%29.74 "HgN/A
4:00 PM97 °FPassing clouds.6 mph42%29.74 "HgN/A
3:30 PM97 °FPassing clouds.8 mph44%29.71 "HgN/A
3:00 PM97 °FSunny.3 mph42%29.74 "Hg10 mi
2:30 PM97 °FPassing clouds.6 mph44%29.74 "HgN/A
2:00 PM97 °FPassing clouds.6 mph44%29.74 "HgN/A
1:30 PM97 °FSunny.3 mph44%29.77 "Hg10 mi
1:00 PM95 °FPassing clouds.3 mph44%29.77 "HgN/A
12:30 PM95 °FPassing clouds.6 mph47%29.77 "HgN/A
11:30 AM93 °FPassing clouds.6 mph47%29.80 "HgN/A
11:00 AM93 °FPassing clouds.8 mph49%29.80 "HgN/A
10:30 AM93 °FPassing clouds.8 mph49%29.80 "HgN/A
10:00 AM91 °FPassing clouds.8 mph49%29.80 "HgN/A
9:30 AM91 °FPassing clouds.8 mph49%29.80 "HgN/A
9:00 AM90 °FPassing clouds.6 mph55%29.80 "HgN/A
8:30 AM88 °FPassing clouds.8 mph59%29.80 "HgN/A
8:00 AM86 °FSunny.8 mph62%29.80 "Hg10 mi
7:30 AM86 °FPassing clouds.6 mph59%29.77 "HgN/A
7:00 AM86 °FPassing clouds.6 mph59%29.77 "HgN/A
Weather by CustomWeather, © 2015

See weather overviewHow to use our weather pages